Regional Weather Roundup
Issued by NWS

Home | Current Version | Previous Version | Graphics & Text | Print | Product List | Glossary On
Versions: 1 2 3 4 5 6 7 8 9 10 11 12 13 14 15 16 17 18 19 20 21 22 23 24 25 26 27 28 29 30 31 32 33 34 35 36 37 38 39 40 41 42 43 44 45 46 47 48 49 50
190
ASUS45 KTFX 041510
RWRMT
MONTANA REGIONAL WEATHER ROUNDUP
NATIONAL WEATHER SERVICE GREAT FALLS MT
800 AM MST SUN DEC 04 2016

NOTE: "FAIR" INDICATES FEW OR NO CLOUDS BELOW 12000 FEET WITH NO
SIGNIFICANT WEATHER AND/OR OBSTRUCTIONS TO VISIBILITY.

MTZ001>007-043-041600-
WEST OF THE DIVIDE

CITY           SKY/WX    TMP DP  RH WIND       PRES   REMARKS
KALISPELL      LGT SNOW  34  31  88 S8        29.67F FOG     WCI  27
MISSOULA       CLOUDY    35  30  82 SE13      29.78F WCI  26
BUTTE          CLOUDY    29  16  58 E7        29.78F WCI  22
MULLAN PASS    LGT SNOW  25  22  88 SW9G17    29.64F VSB 3/4 WCI  15
ANACONDA         N/A     30  18  59 S14G23    29.76F WCI  20
DEER LODGE       N/A     32  21  64 S15       29.76F WCI  22
EUREKA           N/A     36  28  75 SE8       29.63F WCI  29
HAMILTON         N/A     34  30  86 S9        29.79F WCI  26
LIBBY            N/A     34  32  93 CALM      29.66F
PLAINS           N/A     35  30  82 MISG      29.76F
RONAN            N/A     38  27  65 CALM      29.78F
$$

MTZ008-052>055-041600-
SOUTHWEST MONTANA

CITY           SKY/WX    TMP DP  RH WIND       PRES   REMARKS
BOZEMAN        CLOUDY    29  19  66 CALM      29.80F
DILLON         CLOUDY    24  16  71 S8        29.82F WCI  15
W YELLOWSTONE  LGT SNOW  23  19  86 SW7       29.89F VSB 1   WCI  15
ENNIS          CLOUDY    28  19  69 S14G21    29.87F WCI  17
THREE FORKS      N/A     34  34 100 SW16      29.81F WCI  24
TWIN BRIDGES     N/A     25  12  57 SE7       29.83F WCI  17
$$

MTZ009-010-012-014-046-048-049-054-041600-
EAST SLOPES AND CENTRAL MONTANA

CITY           SKY/WX    TMP DP  RH WIND       PRES   REMARKS
CUT BANK       MOCLDY    27  22  81 SW15      29.58F WCI  15
GREAT FALLS    CLOUDY    34  21  59 SW16      29.65F WCI  24
MALMSTROM AFB  CLOUDY    29  21  73 S13       29.67F WCI  19
HELENA         CLOUDY    37  19  48 SW5       29.76F
AUGUSTA        MOCLDY    32  21  64 SW24G31   29.63F WCI  18
BOWMANS CRNR   MOCLDY    30  24  79 SW23G31   29.65F WCI  16
CHOTEAU          N/A     32  23  69 SW17G24   29.62F WCI  21
CONRAD           N/A     26  20  78 S5        29.66F
FAIRFIELD        N/A     32  20  59 S16G24    29.61F WCI  22
POWER            N/A     31  22  71 S14       29.64F WCI  20
RAYNESFORD     MOCLDY    36  19  50 SW21G31   29.66F WCI  24
ULM            MOCLDY    37  21  52 W18G26    29.66F WCI  27
$$

MTZ011-013-016-021-045-047-050-051-041600-
NORTH CENTRAL MONTANA

CITY           SKY/WX    TMP DP  RH WIND       PRES   REMARKS
HAVRE          CLOUDY    35  24  64 SW13      29.66F WCI  26
LEWISTOWN      CLOUDY    31  17  56 SW10      29.72F WCI  22
N BAR RANCH      N/A     32  12  43 W8G17     29.73F WCI  25
CHINOOK          N/A     23  18  80 E9        29.68F WCI  13
DENTON         MOCLDY    30  19  62 S7G17     29.67F WCI  23
GEYSER         MOCLDY    31  18  59 W16       29.66F WCI  20
GRASS RANGE      N/A     29  19  64 SW15      29.69F WCI  18
JUDITH GAP     CLOUDY    32  15  49 S7G17     29.72F WCI  25
ROY              N/A     35  18  48 MISG      29.69F
STANFORD       MOCLDY    31  17  55 SW9       29.67F WCI  23
WINIFRED         N/A     31  19  60 MISG      29.69F
$$

MTZ017>020-022>027-061-062-041600-
NORTHEAST MONTANA

CITY           SKY/WX    TMP DP  RH WIND       PRES   REMARKS
GLASGOW        CLEAR     21  16  81 S14       29.73F WCI   8
JORDAN           N/A     16  12  84 CALM      29.76S
SIDNEY         CLEAR     17  15  92 S6        29.78S WCI   9
WOLF POINT     CLEAR     17  13  84 CALM      29.76F
PLENTYWOOD       N/A     18  16  93 W5        29.72F
POPLAR           N/A     21  18  86 CALM      29.76F
SCOBEY           N/A     16   5  61 CALM      29.71F
$$

MTZ028>42-056>058-041600-
SOUTHCENTRAL AND SOUTHEAST MONTANA

CITY           SKY/WX    TMP DP  RH WIND       PRES   REMARKS
BAKER          CLEAR     15  11  83 CALM      29.80S
BILLINGS       MOCLDY    34  15  46 W17       29.78F WCI  23
LIVINGSTON     CLOUDY    36  16  44 SW22      29.75F WCI  25
MILES CITY     MOCLDY    30  18  60 W8        29.80S WCI  22
BIG TIMBER     CLEAR     32  16  51 W10       29.78F WCI  24
EKALAKA          N/A     31  18  58 SW10      29.79F WCI  22
FORSYTH          N/A     32  18  55 CALM      29.79F
HARLOWTON      CLOUDY    34  15  45 W21G28    29.73F WCI  22
LAUREL           N/A     30   9  41 SW2       29.79F
ROUNDUP          N/A     27  14  57 S6        29.70F WCI  21
$$

REGIONAL REPORTS...DAKOTAS

CITY           SKY/WX    TMP DP  RH WIND       PRES   REMARKS
WILLISTON      CLEAR     20  17  88 SW5       29.76S
MINOT          CLOUDY    28  25  88 W14       29.71R WCI  17
DICKINSON      CLEAR     19  14  81 W15       29.74S WCI   5
BEACH            N/A     19  16  86 SW3       29.80F
CROSBY           N/A     10  10 100 SW7       29.74S WCI   0
TIOGA            N/A     19  19 100 W10       29.73S WCI   8
WATFORD CITY     N/A     18  18 100 SW8       29.76S WCI   7
BISMARCK       PTCLDY    30  27  88 W9        29.76S WCI  22
GRAND FORKS    CLOUDY    34  32  92 S10       29.69S WCI  26
FARGO          LGT SNOW  33  31  92 S12       29.73S VSB 3/4 WCI  24
BUFFALO SD       N/A     28  20  71 W10       29.75S WCI  19
RAPID CITY     CLEAR     27  17  66 W7        29.88S WCI  19
$$

REGIONAL REPORTS...WYOMING/IDAHO/WASHINGTON

CITY           SKY/WX    TMP DP  RH WIND       PRES   REMARKS
GILLETTE       CLEAR     26  12  55 SW16      29.84F WCI  14
SHERIDAN       CLOUDY    31  15  52 SE5       29.83F
BUFFALO WY     CLOUDY    31  13  47 N7        29.83S WCI  24
CODY           CLOUDY    32  22  66 SW7       29.82F WCI  26
YELLOWSTONE LA   N/A     20  16  84 VRB3      29.88F
IDAHO FALLS    CLOUDY    31  22  69 SE3       30.00F
SALMON         CLOUDY    27  21  80 CALM      29.89F
BOISE          CLOUDY    41  32  70 SE14      29.98F
SPOKANE        CLOUDY    37  32  82 SW22      29.75F WCI  26
$$

REGIONAL REPORTS...ALBERTA

CITY           SKY/WX    TMP DP  RH WIND       PRES   REMARKS
EDMONTON       CLEAR     18   9  68 W7        29.61F WCI   8
CALGARY        CLOUDY    25  23  93 NE14      29.59S WCI  13
LETHBRIDGE     MOCLDY    27  23  86 NE7       29.56F WCI  19
MEDICINE HAT   MOCLDY    25  19  80 W3        29.59F
WATERTON GATE    N/A     30  25  80 SW13G18     N/A  WCI  20
CARDSTON         N/A     30  21  69 SW6         N/A  WCI  24
MILK RIVER       N/A     30  25  80 SW7         N/A  WCI  23
$$

REGIONAL REPORTS...SASKATCHEWAN

CITY           SKY/WX    TMP DP  RH WIND       PRES   REMARKS
SWIFT CURRENT  PTCLDY    16  14  93 SW13      29.60F WCI   2
REGINA         FOG       16  14  93 S3        29.69S VSB 1/2
SASKATOON      MOCLDY    14  12  92 SW5       29.67R
VAL MARIE        N/A     12  10  92 S1          N/A
ROCKGLEN         N/A     16  12  86 W9          N/A  WCI   4
ASSINIBOIA       N/A     19  12  73 SW8         N/A  WCI   9
$$




USA.gov is the U.S. government's official web portal to all federal, state and local government web resources and services.